This is the latest recevied weather packets stored in our database for station/object DG4MJS-10. If no packets are shown the sender has not sent any weather packets the latest 10 day(s).
| Time | Temp. | Humidity | Pressure | Rain* | Wind** | Luminosity | Snow |
|---|---|---|---|---|---|---|---|
| 1777971612 | 16.67° C | 61% | 1008 hPa | - | - | - | - |
| 1777970712 | 16.67° C | 63% | 1008.2 hPa | - | - | - | - |
| 1777969812 | 16.11° C | 64% | 1008.2 hPa | - | - | - | - |
| 1777968912 | 16.11° C | 64% | 1008.4 hPa | - | - | - | - |
| 1777968012 | 16.11° C | 63% | 1008.4 hPa | - | - | - | - |
| 1777967112 | 16.11° C | 64% | 1008.5 hPa | - | - | - | - |
| 1777966212 | 15.56° C | 65% | 1008.8 hPa | - | - | - | - |
| 1777965312 | 15.56° C | 66% | 1009 hPa | - | - | - | - |
| 1777964411 | 15° C | 67% | 1009 hPa | - | - | - | - |
| 1777963511 | 15° C | 67% | 1009 hPa | - | - | - | - |
| 1777962611 | 15° C | 67% | 1009.1 hPa | - | - | - | - |
| 1777961711 | 14.44° C | 67% | 1009.1 hPa | - | - | - | - |
| 1777960811 | 14.44° C | 66% | 1009.2 hPa | - | - | - | - |
| 1777959910 | 13.89° C | 66% | 1009.2 hPa | - | - | - | - |
| 1777959010 | 13.89° C | 66% | 1009.3 hPa | - | - | - | - |
| 1777958110 | 13.33° C | 66% | 1009.3 hPa | - | - | - | - |
| 1777957210 | 13.33° C | 66% | 1009.3 hPa | - | - | - | - |
| 1777956310 | 12.78° C | 67% | 1009.7 hPa | - | - | - | - |
| 1777955410 | 12.78° C | 65% | 1009.6 hPa | - | - | - | - |
| 1777954512 | 12.78° C | 65% | 1009.5 hPa | - | - | - | - |
| 1777953612 | 12.78° C | 66% | 1009.5 hPa | - | - | - | - |
| 1777952712 | 12.78° C | 66% | 1009.5 hPa | - | - | - | - |
| 1777951812 | 13.33° C | 66% | 1009.5 hPa | - | - | - | - |
| 1777950911 | 13.33° C | 65% | 1009.7 hPa | - | - | - | - |
| 1777950011 | 13.33° C | 66% | 1009.9 hPa | - | - | - | - |
* Rain since midnight (hover to see other rain measurements)
** Current wind speed in m/s (hover to see current wind gust speed)